RH
100 87 95 97 93 98 100 100 100 99 95 86 73 69 68 86 93 100 100 95 97 67 73 69 61 74 81 95 84 60 43 28 24 22 23 25 26 26 30 30 23 42 70
94 91 83 100 98 95 100 100 99 98 100 91 96 100 100 100 98 100 100 84 86 96 87 77 88 97 93 88 80 56 35 25 21 20 20 25 25 26 27 21 22 43 74
72 89 94 100 100 100 100 100 94 97 100 99 99 100 100 99 100 100 82 97 100 100 82 86 100 100 96 84 64 45 24 23 20 23 20 21 24 30 24 20 18 57 89
50 67 84 100 100 100 100 100 93 84 100 100 100 100 99 88 98 100 100 100 100 99 71 100 100 100 98 64 55 33 19 15 19 25 24 18 25 27 23 18 18 73 63
42 64 86 97 100 100 100 100 100 100 100 100 100 100 100 100 97 95 100 94 98 96 88 100 100 98 69 54 45 27 18 16 16 21 24 24 23 22 20 16 23 57 70
98 99 97 100 100 100 100 100 100 100 100 100 100 100 100 78 75 73 92 100 98 100 100 100 97 78 62 54 39 25 19 17 14 15 16 17 19 19 17 21 39 86 61
87 64 100 100 100 100 100 100 100 100 100 100 100 100 100 75 75 87 91 90 100 100 91 88 73 67 53 43 34 25 18 16 14 14 18 20 19 17 26 41 57 43 57
98 100 100 100 100 100 100 100 100 100 100 100 100 100 82 71 91 95 100 100 100 100 100 79 67 59 50 42 37 28 22 19 14 14 17 18 19 29 45 52 89 75 83
100 100 100 100 100 100 100 100 100 100 100 100 100 88 76 82 100 100 100 100 98 86 74 69 61 49 46 37 30 27 22 19 15 14 16 20 43 44 59 72 68 92 71
100 100 100 100 100 100 100 100 100 100 100 100 79 80 97 79 97 95 100 100 99 85 75 74 52 42 42 34 30 30 22 18 14 15 17 41 47 49 64 61 47 70 69
100 100 100 100 100 100 100 100 100 97 96 84 100 100 98 78 80 100 100 100 98 78 76 68 57 48 41 35 38 34 24 20 17 18 37 65 44 60 54 40 48 57 70
100 100 97 100 100 100 100 100 94 100 100 100 100 100 80 74 100 100 100 100 95 91 90 76 62 63 45 46 37 30 21 14 19 37 45 56 48 66 45 44 51 70 66
100 100 100 100 100 100 100 100 100 100 100 100 98 92 79 100 100 100 99 90 100 100 94 87 76 52 52 40 31 22 21 24 45 51 57 56 50 74 44 61 62 43 78
100 100 100 100 100 100 100 100 93 100 100 92 69 100 99 100 100 100 100 92 94 89 79 79 68 39 38 31 34 44 36 60 61 57 69 58 79 61 56 51 72 58 78
100 100 100 100 100 100 100 97 97 100 97 82 100 96 100 100 100 100 100 90 86 77 79 57 40 38 39 46 50 60 57 68 69 63 59 59 69 84 57 65 64 60 84
100 100 100 100 100 100 100 92 87 92 93 86 100 100 100 100 100 100 98 93 99 92 79 64 61 54 53 66 88 69 72 80 77 80 82 89 98 67 55 76 74 85 95
100 100 100 100 100 100 100 100 100 99 100 100 100 100 100 100 100 100 100 99 100 96 83 92 69 53 71 85 79 73 83 79 90 96 90 100 87 80 76 72 74 100 99
100 100 100 100 100 100 100 100 100 100 79 96 100 100 100 100 100 100 100 100 100 100 90 87 100 99 91 78 81 80 88 100 100 100 79 73 82 86 95 79 100 100 86
100 100 100 100 100 100 100 100 100 100 100 100 100 100 100 100 100 100 100 100 95 95 99 98 83 87 96 80 98 99 100 98 90 88 94 77 73 74 83 100 100 100 82
100 100 100 100 100 100 100 100 100 100 100 100 100 100 100 100 100 100 100 100 100 100 100 100 100 100 95 89 87 96 88 88 81 85 97 98 83 96 100 100 98 87 78
100 100 100 100 100 100 100 100 100 100 100 100 96 100 100 100 100 100 100 100 100 100 100 100 96 91 99 100 89 54 69 90 98 95 100 100 96 94 100 100 100 92 64
100 100 94 91 81 81 96 82 100 98 71 86 54 63 69 93 100 100 100 99 56 97 100 91 92 100 86 92 86 100 100 90 100 100 100 100 98 97 100 99 95 57 78
100 100 100 100 100 98 100 100 87 90 100 98 100 100 100 98 95 76 68 86 97 99 97 92 86 81 90 84 93 100 100 100 100 100 100 91 100 100 100 100 90 72 78
100 100 100 100 100 100 100 100 100 100 99 100 100 100 100 100 100 99 99 100 79 71 75 82 84 98 100 100 100 100 100 100 100 100 100 100 100 100 100 82 96 90 91
100 100 100 100 100 100 100 100 100 100 100 100 100 100 100 100 100 100 100 92 99 90 99 100 100 100 100 100 100 100 99 97 100 100 100 100 100 100 80 100 100 100 90
100 100 100 100 100 100 100 100 100 100 100 100 100 100 100 100 100 95 100 100 96 96 100 100 100 99 96 99 100 100 100 100 100 100 100 100 100 96 89 91 100 67 88
Wind_Speed
60 58 55 50 45 43 41 38 38 35 34 34 33 35 35 36 34 36 41 41 43 43 43 46 48 42 42 48 53 58 57 48 45 37 32 24 20 28 35 43 56 64 63
63 61 57 53 50 47 45 42 41 40 39 39 39 40 41 38 39 40 44 44 45 46 46 48 46 43 46 50 55 59 54 45 42 41 31 28 27 33 36 47 58 60 64
64 63 60 58 55 53 50 46 45 44 43 44 46 44 45 43 45 44 44 46 49 49 49 46 46 48 50 55 58 57 50 51 50 44 40 31 29 31 36 56 71 64 65
66 63 61 61 60 57 54 51 50 49 47 47 48 48 50 50 52 50 49 48 52 50 50 46 48 50 53 57 56 55 47 48 48 44 45 46 37 37 48 60 71 58 66
64 59 61 62 63 62 57 56 54 53 51 51 53 53 54 52 57 51 50 51 53 54 47 49 51 56 56 55 56 50 50 47 43 44 38 41 38 43 55 56 67 65 70
52 49 53 59 65 63 61 60 58 57 56 56 55 55 53 57 56 59 56 53 54 47 48 51 53 54 55 55 54 52 53 46 46 40 43 43 40 50 52 56 64 60 69
53 54 51 56 63 64 62 59 62 60 56 56 57 54 55 57 56 58 58 55 49 47 49 51 53 54 55 55 56 56 52 52 49 50 50 51 48 50 48 58 60 68 72
51 45 41 45 55 60 62 60 59 60 59 57 56 59 61 56 53 54 54 51 50 51 53 56 59 61 62 61 61 57 54 57 56 51 52 57 52 56 60 64 64 70 73
50 49 48 46 46 44 55 56 53 57 57 58 59 61 59 56 58 55 50 53 52 51 55 58 62 65 65 64 61 61 59 63 64 63 56 61 61 62 59 61 63 65 72
48 50 47 45 43 45 44 51 59 54 58 60 60 61 59 60 59 57 53 54 57 56 57 59 62 64 64 63 63 62 64 64 69 65 62 61 62 65 64 65 70 68 72
51 53 52 53 46 45 44 48 49 54 56 57 56 58 60 61 62 55 58 59 60 61 61 62 61 66 67 68 64 64 69 69 69 67 67 69 69 69 69 72 72 71 80
55 54 57 57 48 48 47 49 50 48 48 52 55 57 62 60 58 59 62 62 64 65 62 65 69 69 69 65 64 67 71 76 72 71 73 73 73 72 74 76 79 76 85
55 53 55 55 51 51 50 48 49 49 50 53 55 60 62 61 58 64 66 69 68 62 65 70 71 75 68 66 69 71 70 76 71 73 73 75 74 75 78 79 81 95 86
65 59 59 54 57 56 53 54 51 52 54 55 58 61 59 62 65 70 71 73 74 76 76 75 74 75 71 74 70 71 74 74 76 75 78 81 79 82 81 84 84 97 98
72 63 58 56 58 60 58 60 54 54 55 55 56 54 61 65 71 74 78 81 80 82 77 76 78 73 71 69 73 74 74 78 79 80 79 81 84 87 90 93 93 99 104
75 69 64 58 58 65 64 62 62 60 59 60 61 61 65 71 78 79 82 82 80 83 78 77 74 74 70 70 72 77 79 82 82 82 84 86 86 92 95 95 100 102 106
77 65 67 66 64 63 64 61 59 58 57 60 63 64 69 79 84 85 85 83 81 82 80 78 79 77 73 72 78 80 83 86 87 86 87 89 91 94 97 102 105 108 113
83 73 65 67 64 58 58 56 59 66 66 61 64 66 78 79 82 85 85 83 85 87 85 82 77 77 77 83 83 84 84 85 87 89 94 95 96 100 104 106 104 112 115
86 84 72 68 66 62 64 57 67 75 70 70 72 71 78 85 86 87 88 88 90 89 85 83 84 84 87 88 87 88 90 88 92 96 93 98 100 104 105 106 112 120 124
78 74 77 79 78 77 77 72 71 72 75 73 72 74 78 82 84 86 91 93 93 92 89 88 87 90 91 92 92 90 94 95 97 100 99 101 103 105 103 113 120 131 136
75 76 78 78 74 76 76 77 79 82 83 81 81 81 84 87 90 91 92 92 92 91 93 92 93 95 94 94 94 100 100 100 101 102 100 102 104 109 111 120 129 133 141
70 73 77 76 76 81 80 83 83 85 85 84 84 87 89 93 96 95 95 97 103 96 96 98 98 97 99 99 101 101 102 103 100 103 103 108 110 113 110 128 135 138 137
72 73 76 76 78 81 84 87 86 90 86 90 91 90 89 92 96 97 99 100 103 99 96 98 100 100 101 104 102 105 105 105 106 105 111 113 112 116 128 133 140 145 143
81 81 81 83 87 88 90 91 92 91 92 95 94 93 93 96 98 96 99 97 99 103 102 101 101 101 104 105 107 109 109 111 108 112 114 114 115 125 130 141 142 144 135
86 86 88 89 89 88 91 94 94 93 94 100 99 99 103 104 105 103 103 107 102 105 104 105 105 104 107 109 109 112 113 112 113 115 116 120 130 132 138 142 149 140 144
94 93 95 93 95 96 99 100 100 100 100 107 109 109 111 110 109 112 109 109 107 109 110 110 109 108 109 111 114 114 113 117 117 122 123 129 134 138 144 148 144 142 138
Wind_Direction
242 247 248 251 254 258 261 265 269 272 274 274 274 278 286 293 294 299 303 300 298 303 303 306 309 305 303 302 311 317 320 319 322 325 328 330 335 339 336 335 334 343 350
240 245 249 250 253 256 259 262 267 271 273 274 279 281 285 288 291 298 298 298 299 299 303 307 306 300 294 302 310 315 319 319 320 321 315 324 319 325 330 336 344 336 343
238 241 247 250 252 254 257 260 265 271 275 277 280 284 286 286 287 291 292 298 299 297 304 303 295 294 295 302 311 315 320 317 318 315 311 309 313 325 325 335 334 331 337
238 240 244 248 251 251 254 257 263 268 271 275 278 281 284 284 288 291 291 295 300 293 301 294 289 293 297 307 312 314 318 325 321 312 310 311 309 314 320 329 329 333 341
236 239 242 248 248 249 253 259 263 266 267 272 275 279 283 288 289 287 288 292 293 293 295 290 287 294 300 308 312 311 320 324 331 329 321 311 305 313 316 325 334 341 343
233 236 243 245 247 249 254 258 263 269 270 270 273 278 283 286 286 288 286 290 290 287 289 286 291 295 300 303 309 314 319 320 321 336 329 325 312 315 323 318 330 331 342
235 248 240 244 246 250 254 260 265 265 270 272 273 278 282 286 289 286 283 286 283 287 288 287 293 298 302 305 307 313 313 315 318 320 329 328 325 328 314 334 333 339 339
238 234 235 240 246 250 251 261 263 264 268 272 274 278 280 283 287 287 283 279 279 284 291 294 297 300 302 307 310 311 310 312 314 322 329 327 328 333 339 335 326 331 333
230 239 241 243 245 247 254 257 264 266 268 271 272 274 277 280 286 283 274 272 280 284 287 294 301 301 302 304 306 308 308 313 315 320 321 313 338 337 335 333 328 328 329
233 236 234 237 237 241 248 258 259 255 264 264 269 273 278 280 281 280 270 276 278 284 293 295 301 302 303 308 308 310 311 310 314 315 309 331 334 332 334 332 332 327 330
225 230 233 235 234 243 251 258 256 255 261 268 269 272 276 280 281 271 270 275 281 285 289 294 299 303 305 305 307 305 306 308 312 311 325 334 331 330 329 332 330 330 335
227 234 236 236 237 241 247 253 258 257 259 266 271 274 275 277 277 269 272 276 278 283 290 292 298 303 306 306 303 303 303 310 310 323 328 329 327 326 328 329 329 328 332
232 233 235 240 238 243 243 249 252 255 265 269 271 275 276 278 270 269 272 276 278 285 286 292 295 300 302 304 302 305 306 311 316 322 323 323 324 323 327 327 325 333 326
230 230 236 244 241 242 243 247 250 256 264 268 272 275 276 278 268 271 274 277 278 282 288 291 296 299 301 302 306 312 312 314 318 320 321 323 322 322 324 325 324 329 326
230 232 237 243 247 241 244 245 253 256 265 266 271 273 277 269 267 269 272 278 282 285 289 295 297 301 302 306 309 309 313 316 318 320 319 319 321 321 322 323 324 326 327
227 233 242 241 247 248 250 252 255 257 264 268 271 273 272 267 270 271 274 280 280 286 290 294 297 299 301 306 304 307 313 315 315 316 317 318 316 316 320 321 323 324 326
233 238 242 243 246 248 249 253 256 259 264 270 271 269 268 268 271 272 278 282 284 286 291 294 297 300 299 300 301 307 311 313 314 316 315 314 313 315 318 319 324 323 327
231 235 242 243 241 245 245 254 263 263 268 268 268 267 265 269 271 274 278 280 283 287 292 296 294 295 295 299 305 308 309 308 311 310 312 312 313 315 316 320 318 323 323
233 233 238 239 244 246 255 256 254 262 264 265 265 268 264 268 271 274 279 283 285 286 289 289 291 291 294 300 305 306 306 306 308 308 308 310 314 314 317 316 321 321 324
233 237 239 242 250 252 254 259 254 257 258 258 260 262 262 267 270 275 277 280 283 285 289 289 289 292 296 300 302 303 303 303 305 307 308 308 311 313 311 314 318 323 324
237 240 243 244 245 247 249 246 250 253 255 260 259 260 264 266 271 273 275 278 281 282 283 286 289 291 294 297 298 300 300 301 303 306 305 306 308 310 312 316 319 321 323
233 238 243 245 246 246 250 252 253 258 260 262 264 265 267 268 266 268 272 274 277 278 281 285 287 287 292 295 295 299 297 302 302 302 301 304 307 307 308 313 318 319 325
236 241 242 242 243 245 248 251 253 256 257 259 263 265 265 266 268 271 271 274 275 279 281 283 285 287 291 292 294 294 299 300 301 301 304 305 304 306 310 313 311 315 319
239 243 245 247 250 250 251 254 257 260 262 264 263 263 265 268 269 269 272 273 275 278 280 284 285 287 290 292 293 294 297 299 297 298 301 300 302 305 310 310 312 315 318
240 241 243 248 250 253 255 258 259 262 264 265 266 267 267 267 267 270 274 275 278 277 281 283 285 286 290 292 292 293 294 296 294 293 297 301 302 306 308 309 314 312 312
244 244 246 247 249 251 255 258 261 262 263 265 266 268 270 270 271 274 275 276 280 278 279 282 284 286 288 289 288 289 287 291 291 293 296 299 302 306 305 307 310 313 313